ISS (ZARYA)

Last updated on Sat Dec 13 2025 00:02:11 GMT+0000 (Coordinated Universal Time)

1 25544U 98067A 25346.15413386 .00014398 00000+0 26408-3 0 9998 2 25544 51.6307 145.3792 0003283 237.6977 122.3694 15.49529746542765
UTC large
Height (km)
Speed (km/s)
/
Latitude / Longitude
Inclination (degrees)
Orbital Period (minutes)
Azimuth
Elevation
Range (km)
Doppler Factor

Next 0 passes for location: London (51.5072 / 0.1276)

Sorry there are no passes over London.